This is the latest recevied weather packets stored in our database for station/object WX4HP-13. If no packets are shown the sender has not sent any weather packets the latest 1 day(s).
| Time | Temp. | Humidity | Pressure | Rain* | Wind** | Luminosity | Snow |
|---|---|---|---|---|---|---|---|
| 1778111396 | 17.78° C | 94% | 1012 hPa | 0 mm | - | - | - |
| 1778110197 | -17.78° C | 100% | 0 hPa | 2.54 mm | - | - | - |
| 1778109296 | 17.78° C | 95% | 1011.5 hPa | 11.43 mm | - | - | - |
| 1778104795 | 18.33° C | 91% | 1011 hPa | 3.3 mm | - | - | - |
| 1778104495 | 18.89° C | 90% | 1010.8 hPa | 1.52 mm | - | - | - |
| 1778101195 | 23.33° C | 81% | 1009.6 hPa | 0 mm | - | - | - |
| 1778099695 | 23.89° C | 79% | 1009.7 hPa | 0 mm | - | - | - |
| 1778099395 | -17.78° C | 100% | 0 hPa | 0 mm | - | - | - |
| 1778098795 | 23.33° C | 80% | 1010.3 hPa | 0 mm | - | - | - |
| 1778098495 | 23.33° C | 79% | 1010.3 hPa | 0 mm | - | - | - |
| 1778098195 | 23.89° C | 79% | 1010.5 hPa | 0 mm | - | - | - |
| 1778096696 | 24.44° C | 76% | 1010.7 hPa | 0 mm | - | - | - |
| 1778096396 | 24.44° C | 77% | 1010.8 hPa | 0 mm | - | - | - |
| 1778096096 | 23.89° C | 76% | 1011 hPa | 0 mm | - | - | - |
| 1778095196 | 25° C | 73% | 1011.1 hPa | 0 mm | - | - | - |
| 1778094896 | 25° C | 73% | 1011.1 hPa | 0 mm | - | - | - |
| 1778094596 | 25° C | 73% | 1011.2 hPa | 0 mm | - | - | - |
| 1778093997 | 24.44° C | 76% | 1011.3 hPa | 0 mm | - | - | - |
| 1778093096 | 24.44° C | 75% | 1011.5 hPa | 0 mm | - | - | - |
| 1778092496 | 24.44° C | 75% | 1011.7 hPa | 0 mm | - | - | - |
| 1778092196 | 23.89° C | 76% | 1011.8 hPa | 0 mm | - | - | - |
| 1778091896 | 24.44° C | 75% | 1011.7 hPa | 0 mm | - | - | - |
| 1778091596 | 23.89° C | 75% | 1011.6 hPa | 0 mm | - | - | - |
| 1778088296 | 22.22° C | 80% | 1012.5 hPa | 0 mm | - | - | - |
| 1778087996 | 22.22° C | 81% | 1012.4 hPa | 0 mm | - | - | - |
* Rain latest hour (hover to see other rain measurements)
** Current wind speed in m/s (hover to see current wind gust speed)